Wetterdaten: Samstag, 06.07.2013
Datum Zeit Temperatur Luftfeuchte Luftdruck Regen Wind Richtung Richtung Taupunkt Windchill Windben
06.07.2013 00:00 15,6 C 87 % 1030,2 hPa 0,0 l/m 1,1 km/h (1 Bft) O 90 13,4 C 15,5 C 0,0 km/h (0 Bft)
06.07.2013 00:05 15,6 C 87 % 1030,2 hPa 0,0 l/m 1,4 km/h (1 Bft) O 90 13,4 C 15,5 C 3,1 km/h (1 Bft)
06.07.2013 00:10 15,5 C 88 % 1030,2 hPa 0,0 l/m 0,3 km/h (0 Bft) NO 45 13,5 C 15,5 C 0,0 km/h (0 Bft)
06.07.2013 00:15 15,6 C 88 % 1030,2 hPa 0,0 l/m 0,6 km/h (0 Bft) O 90 13,6 C 15,4 C 2,7 km/h (1 Bft)
06.07.2013 00:20 15,6 C 88 % 1030,2 hPa 0,0 l/m 1,4 km/h (1 Bft) O-NO 67 13,6 C 15,5 C 3,4 km/h (1 Bft)
06.07.2013 00:25 15,6 C 88 % 1030,1 hPa 0,0 l/m 2,3 km/h (1 Bft) NO 45 13,6 C 15,5 C 3,4 km/h (1 Bft)
06.07.2013 00:30 15,5 C 88 % 1030,1 hPa 0,0 l/m 1,9 km/h (1 Bft) O-SO 112 13,5 C 15,5 C 4,8 km/h (1 Bft)
06.07.2013 00:35 15,5 C 88 % 1030,1 hPa 0,0 l/m 1,3 km/h (1 Bft) NO 45 13,5 C 15,4 C 0,0 km/h (0 Bft)
06.07.2013 00:40 15,5 C 88 % 1030,1 hPa 0,0 l/m 0,2 km/h (0 Bft) O-SO 112 13,5 C 15,4 C 0,0 km/h (0 Bft)
06.07.2013 00:45 15,4 C 88 % 1030,2 hPa 0,0 l/m 0,3 km/h (0 Bft) O-NO 67 13,4 C 15,3 C 1,9 km/h (1 Bft)
06.07.2013 00:50 15,4 C 88 % 1030,2 hPa 0,0 l/m 0,3 km/h (0 Bft) O-SO 112 13,4 C 15,3 C 0,0 km/h (0 Bft)
06.07.2013 00:55 15,4 C 88 % 1030,2 hPa 0,0 l/m 0,3 km/h (0 Bft) O 90 13,4 C 15,2 C 0,0 km/h (0 Bft)
06.07.2013 01:00 15,4 C 88 % 1030,2 hPa 0,0 l/m 0,0 km/h (0 Bft) O-SO 112 13,4 C 15,2 C 0,0 km/h (0 Bft)
06.07.2013 01:05 15,3 C 88 % 1030,2 hPa 0,0 l/m 0,0 km/h (0 Bft) NO 45 13,3 C 15,2 C 0,0 km/h (0 Bft)
06.07.2013 01:10 15,2 C 88 % 1030,2 hPa 0,0 l/m 0,0 km/h (0 Bft) O 90 13,2 C 15,1 C 0,0 km/h (0 Bft)
06.07.2013 01:15 15,2 C 88 % 1030,2 hPa 0,0 l/m 0,0 km/h (0 Bft) O 90 13,2 C 15,1 C 0,0 km/h (0 Bft)
06.07.2013 01:20 15,1 C 88 % 1030,2 hPa 0,0 l/m 0,0 km/h (0 Bft) O-NO 67 13,1 C 15,0 C 0,0 km/h (0 Bft)
06.07.2013 01:25 15,1 C 88 % 1029,9 hPa 0,0 l/m 0,0 km/h (0 Bft) O-SO 112 13,1 C 15,0 C 0,0 km/h (0 Bft)
06.07.2013 01:30 15,0 C 88 % 1029,9 hPa 0,0 l/m 0,0 km/h (0 Bft) O-SO 112 13,0 C 15,0 C 0,0 km/h (0 Bft)
06.07.2013 01:35 15,0 C 88 % 1029,9 hPa 0,0 l/m 0,0 km/h (0 Bft) O-NO 67 13,0 C 14,9 C 0,0 km/h (0 Bft)
06.07.2013 01:40 14,9 C 88 % 1029,9 hPa 0,0 l/m 0,0 km/h (0 Bft) O-NO 67 12,9 C 14,8 C 0,0 km/h (0 Bft)
06.07.2013 01:45 14,8 C 88 % 1029,8 hPa 0,0 l/m 0,2 km/h (0 Bft) O-NO 67 12,8 C 14,7 C 3,1 km/h (1 Bft)
06.07.2013 01:50 14,8 C 88 % 1029,8 hPa 0,0 l/m 1,1 km/h (1 Bft) O-NO 67 12,8 C 14,8 C 2,6 km/h (1 Bft)
06.07.2013 01:55 14,8 C 88 % 1029,8 hPa 0,0 l/m 1,8 km/h (1 Bft) O 90 12,8 C 14,7 C 2,3 km/h (1 Bft)
06.07.2013 02:00 14,7 C 88 % 1029,8 hPa 0,0 l/m 2,1 km/h (1 Bft) O-NO 67 12,7 C 14,7 C 2,1 km/h (1 Bft)
06.07.2013 02:05 14,6 C 88 % 1029,6 hPa 0,0 l/m 1,6 km/h (1 Bft) O 90 12,6 C 14,6 C 0,0 km/h (0 Bft)
06.07.2013 02:10 14,4 C 88 % 1029,6 hPa 0,0 l/m 0,3 km/h (0 Bft) O-SO 112 12,4 C 14,4 C 0,0 km/h (0 Bft)
06.07.2013 02:15 14,3 C 88 % 1029,6 hPa 0,0 l/m 0,0 km/h (0 Bft) O 90 12,3 C 14,2 C 0,0 km/h (0 Bft)
06.07.2013 02:20 14,0 C 88 % 1029,6 hPa 0,0 l/m 0,0 km/h (0 Bft) NO 45 12,0 C 14,0 C 0,0 km/h (0 Bft)
06.07.2013 02:25 13,7 C 89 % 1029,3 hPa 0,0 l/m 0,0 km/h (0 Bft) NO 45 11,9 C 13,7 C 0,0 km/h (0 Bft)
06.07.2013 02:30 13,6 C 89 % 1029,3 hPa 0,0 l/m 0,0 km/h (0 Bft) NO 45 11,8 C 13,5 C 0,0 km/h (0 Bft)
06.07.2013 02:35 13,6 C 89 % 1029,3 hPa 0,0 l/m 0,0 km/h (0 Bft) NO 45 11,8 C 13,3 C 0,0 km/h (0 Bft)
06.07.2013 02:40 13,5 C 89 % 1029,3 hPa 0,0 l/m 0,0 km/h (0 Bft) O-SO 112 11,7 C 13,1 C 0,0 km/h (0 Bft)
06.07.2013 02:45 13,3 C 89 % 1029,2 hPa 0,0 l/m 0,0 km/h (0 Bft) O 90 11,5 C 13,1 C 0,0 km/h (0 Bft)
06.07.2013 02:50 13,2 C 89 % 1029,2 hPa 0,0 l/m 0,0 km/h (0 Bft) NO 45 11,4 C 12,8 C 0,0 km/h (0 Bft)
06.07.2013 02:55 13,1 C 89 % 1029,2 hPa 0,0 l/m 0,2 km/h (0 Bft) NO 45 11,3 C 12,8 C 1,8 km/h (1 Bft)
06.07.2013 03:00 13,0 C 89 % 1029,2 hPa 0,0 l/m 0,3 km/h (0 Bft) O-SO 112 11,2 C 12,7 C 0,0 km/h (0 Bft)
06.07.2013 03:05 12,7 C 90 % 1029,0 hPa 0,0 l/m 0,2 km/h (0 Bft) O-SO 112 11,1 C 12,5 C 0,0 km/h (0 Bft)
06.07.2013 03:10 12,4 C 91 % 1029,0 hPa 0,0 l/m 0,0 km/h (0 Bft) O 90 11,0 C 12,3 C 0,0 km/h (0 Bft)
06.07.2013 03:15 12,4 C 91 % 1029,0 hPa 0,0 l/m 0,0 km/h (0 Bft) NO 45 11,0 C 12,2 C 0,0 km/h (0 Bft)
06.07.2013 03:20 12,4 C 91 % 1029,0 hPa 0,0 l/m 0,0 km/h (0 Bft) O-SO 112 11,0 C 12,0 C 0,0 km/h (0 Bft)
06.07.2013 03:25 12,5 C 91 % 1029,1 hPa 0,0 l/m 0,0 km/h (0 Bft) O-SO 112 11,1 C 12,1 C 0,0 km/h (0 Bft)
06.07.2013 03:30 12,2 C 91 % 1029,1 hPa 0,0 l/m 0,0 km/h (0 Bft) NO 45 10,8 C 12,0 C 0,0 km/h (0 Bft)
06.07.2013 03:35 12,2 C 91 % 1029,1 hPa 0,0 l/m 0,0 km/h (0 Bft) NO 45 10,8 C 11,9 C 0,0 km/h (0 Bft)
06.07.2013 03:40 12,2 C 91 % 1029,1 hPa 0,0 l/m 0,0 km/h (0 Bft) NO 45 10,8 C 12,0 C 0,0 km/h (0 Bft)
06.07.2013 03:45 12,2 C 91 % 1028,8 hPa 0,0 l/m 0,0 km/h (0 Bft) NO 45 10,8 C 12,0 C 0,0 km/h (0 Bft)
06.07.2013 03:50 12,4 C 91 % 1028,8 hPa 0,0 l/m 0,0 km/h (0 Bft) NO 45 11,0 C 11,9 C 0,0 km/h (0 Bft)
06.07.2013 03:55 12,4 C 92 % 1028,8 hPa 0,0 l/m 0,0 km/h (0 Bft) O 90 11,1 C 12,0 C 0,0 km/h (0 Bft)
06.07.2013 04:00 12,5 C 92 % 1028,8 hPa 0,0 l/m 0,0 km/h (0 Bft) O 90 11,2 C 12,0 C 1,8 km/h (1 Bft)
06.07.2013 04:05 12,5 C 92 % 1028,8 hPa 0,0 l/m 0,3 km/h (0 Bft) SO 135 11,2 C 12,3 C 2,1 km/h (1 Bft)
06.07.2013 04:10 12,3 C 92 % 1028,8 hPa 0,0 l/m 0,5 km/h (0 Bft) NO 45 11,0 C 12,4 C 0,0 km/h (0 Bft)
06.07.2013 04:15 12,1 C 92 % 1028,8 hPa 0,0 l/m 0,2 km/h (0 Bft) NO 45 10,8 C 12,3 C 0,0 km/h (0 Bft)
06.07.2013 04:20 12,0 C 92 % 1028,8 hPa 0,0 l/m 0,0 km/h (0 Bft) O-NO 67 10,7 C 12,0 C 0,0 km/h (0 Bft)
06.07.2013 04:25 12,0 C 92 % 1028,6 hPa 0,0 l/m 0,0 km/h (0 Bft) O 90 10,7 C 11,9 C 0,0 km/h (0 Bft)
06.07.2013 04:30 12,0 C 92 % 1028,6 hPa 0,0 l/m 0,0 km/h (0 Bft) O-NO 67 10,7 C 11,7 C 0,0 km/h (0 Bft)
06.07.2013 04:35 12,2 C 92 % 1028,6 hPa 0,0 l/m 0,0 km/h (0 Bft) O 90 10,9 C 11,7 C 0,0 km/h (0 Bft)
06.07.2013 04:40 11,8 C 92 % 1028,6 hPa 0,0 l/m 0,0 km/h (0 Bft) NO 45 10,5 C 11,6 C 0,0 km/h (0 Bft)
06.07.2013 04:45 11,6 C 92 % 1028,7 hPa 0,0 l/m 0,0 km/h (0 Bft) O-NO 67 10,3 C 11,6 C 0,0 km/h (0 Bft)
06.07.2013 04:50 11,8 C 92 % 1028,7 hPa 0,0 l/m 0,0 km/h (0 Bft) O 90 10,5 C 11,4 C 0,0 km/h (0 Bft)
06.07.2013 04:55 11,7 C 92 % 1028,7 hPa 0,0 l/m 0,0 km/h (0 Bft) O-NO 67 10,4 C 11,5 C 0,0 km/h (0 Bft)
06.07.2013 05:00 11,3 C 92 % 1028,7 hPa 0,0 l/m 0,0 km/h (0 Bft) NO 45 10,0 C 11,3 C 0,0 km/h (0 Bft)
06.07.2013 05:05 11,4 C 92 % 1028,8 hPa 0,0 l/m 0,0 km/h (0 Bft) O 90 10,1 C 11,2 C 0,0 km/h (0 Bft)
06.07.2013 05:10 11,8 C 92 % 1028,8 hPa 0,0 l/m 0,0 km/h (0 Bft) O 90 10,5 C 11,2 C 0,0 km/h (0 Bft)
06.07.2013 05:15 11,7 C 92 % 1028,8 hPa 0,0 l/m 0,0 km/h (0 Bft) O-NO 67 10,4 C 11,2 C 0,0 km/h (0 Bft)
06.07.2013 05:20 11,6 C 92 % 1028,8 hPa 0,0 l/m 0,0 km/h (0 Bft) O 90 10,3 C 11,1 C 0,0 km/h (0 Bft)
06.07.2013 05:25 11,6 C 92 % 1028,6 hPa 0,0 l/m 0,0 km/h (0 Bft) O-SO 112 10,3 C 11,2 C 0,0 km/h (0 Bft)
06.07.2013 05:30 11,4 C 92 % 1028,6 hPa 0,0 l/m 0,0 km/h (0 Bft) NO 45 10,1 C 11,1 C 0,0 km/h (0 Bft)
06.07.2013 05:35 11,4 C 92 % 1028,6 hPa 0,0 l/m 0,0 km/h (0 Bft) NO 45 10,1 C 11,1 C 0,0 km/h (0 Bft)
06.07.2013 05:40 11,3 C 92 % 1028,6 hPa 0,0 l/m 0,2 km/h (0 Bft) NO 45 10,0 C 11,3 C 0,0 km/h (0 Bft)
06.07.2013 05:45 11,2 C 92 % 1028,6 hPa 0,0 l/m 0,3 km/h (0 Bft) O-NO 67 9,9 C 11,3 C 0,0 km/h (0 Bft)
06.07.2013 05:50 11,1 C 92 % 1028,6 hPa 0,0 l/m 0,2 km/h (0 Bft) O-SO 112 9,8 C 11,1 C 0,0 km/h (0 Bft)
06.07.2013 05:55 11,1 C 92 % 1028,6 hPa 0,0 l/m 0,0 km/h (0 Bft) NO 45 9,8 C 11,0 C 0,0 km/h (0 Bft)
06.07.2013 06:00 11,4 C 92 % 1028,6 hPa 0,0 l/m 0,0 km/h (0 Bft) O-SO 112 10,1 C 10,9 C 0,0 km/h (0 Bft)
06.07.2013 06:05 11,3 C 92 % 1028,7 hPa 0,0 l/m 0,0 km/h (0 Bft) S-SO 157 10,0 C 11,3 C 0,0 km/h (0 Bft)
06.07.2013 06:10 11,8 C 93 % 1028,7 hPa 0,0 l/m 0,0 km/h (0 Bft) S-SO 157 10,7 C 11,8 C 0,0 km/h (0 Bft)
06.07.2013 06:15 12,7 C 92 % 1028,7 hPa 0,0 l/m 0,0 km/h (0 Bft) S-SO 157 11,4 C 12,3 C 0,0 km/h (0 Bft)
06.07.2013 06:20 13,3 C 91 % 1028,7 hPa 0,0 l/m 0,0 km/h (0 Bft) S 180 11,9 C 12,7 C 0,0 km/h (0 Bft)
06.07.2013 06:25 13,7 C 91 % 1028,8 hPa 0,0 l/m 0,0 km/h (0 Bft) S 180 12,3 C 13,0 C 0,0 km/h (0 Bft)
06.07.2013 06:30 13,7 C 91 % 1028,8 hPa 0,0 l/m 0,0 km/h (0 Bft) S 180 12,3 C 13,5 C 0,0 km/h (0 Bft)
06.07.2013 06:35 14,1 C 90 % 1028,8 hPa 0,0 l/m 0,0 km/h (0 Bft) S 180 12,5 C 13,8 C 0,0 km/h (0 Bft)
06.07.2013 06:40 13,1 C 90 % 1028,8 hPa 0,0 l/m 0,0 km/h (0 Bft) S 180 11,5 C 13,5 C 0,0 km/h (0 Bft)
06.07.2013 06:45 12,8 C 92 % 1028,7 hPa 0,0 l/m 0,0 km/h (0 Bft) S 180 11,5 C 13,1 C 0,0 km/h (0 Bft)
06.07.2013 06:50 12,3 C 91 % 1028,7 hPa 0,0 l/m 0,0 km/h (0 Bft) O-NO 67 10,9 C 12,7 C 0,0 km/h (0 Bft)
06.07.2013 06:55 12,2 C 91 % 1028,7 hPa 0,0 l/m 0,0 km/h (0 Bft) O-NO 67 10,8 C 12,4 C 0,0 km/h (0 Bft)
06.07.2013 07:00 12,7 C 92 % 1028,7 hPa 0,0 l/m 0,0 km/h (0 Bft) NO 45 11,4 C 12,3 C 0,0 km/h (0 Bft)
06.07.2013 07:05 13,2 C 90 % 1028,6 hPa 0,0 l/m 0,0 km/h (0 Bft) NO 45 11,6 C 12,7 C 0,0 km/h (0 Bft)
06.07.2013 07:10 14,1 C 90 % 1028,6 hPa 0,0 l/m 0,0 km/h (0 Bft) NO 45 12,5 C 13,2 C 0,0 km/h (0 Bft)
06.07.2013 07:15 15,4 C 90 % 1028,6 hPa 0,0 l/m 0,0 km/h (0 Bft) S 180 13,8 C 13,9 C 0,0 km/h (0 Bft)
06.07.2013 07:20 15,9 C 88 % 1028,6 hPa 0,0 l/m 0,0 km/h (0 Bft) S 180 13,9 C 15,1 C 0,0 km/h (0 Bft)
06.07.2013 07:25 16,3 C 87 % 1028,4 hPa 0,0 l/m 0,0 km/h (0 Bft) NO 45 14,1 C 15,8 C 0,0 km/h (0 Bft)
06.07.2013 07:30 17,4 C 85 % 1028,4 hPa 0,0 l/m 0,0 km/h (0 Bft) NO 45 14,8 C 16,7 C 0,0 km/h (0 Bft)
06.07.2013 07:35 18,3 C 84 % 1028,4 hPa 0,0 l/m 0,0 km/h (0 Bft) NO 45 15,5 C 17,5 C 0,0 km/h (0 Bft)
06.07.2013 07:40 18,5 C 77 % 1028,4 hPa 0,0 l/m 0,0 km/h (0 Bft) NO 45 14,4 C 18,2 C 0,0 km/h (0 Bft)
06.07.2013 07:45 18,8 C 76 % 1028,4 hPa 0,0 l/m 0,0 km/h (0 Bft) N-NO 22 14,5 C 18,7 C 0,0 km/h (0 Bft)
06.07.2013 07:50 20,1 C 75 % 1028,4 hPa 0,0 l/m 0,0 km/h (0 Bft) W-SW 247 15,5 C 18,9 C 0,0 km/h (0 Bft)
06.07.2013 07:55 20,5 C 75 % 1028,4 hPa 0,0 l/m 0,0 km/h (0 Bft) W-SW 247 15,9 C 19,2 C 0,0 km/h (0 Bft)
06.07.2013 08:00 21,2 C 71 % 1028,4 hPa 0,0 l/m 0,0 km/h (0 Bft) S-SW 202 15,7 C 20,0 C 0,0 km/h (0 Bft)
06.07.2013 08:05 21,0 C 69 % 1028,4 hPa 0,0 l/m 0,0 km/h (0 Bft) NO 45 15,1 C 20,5 C 0,0 km/h (0 Bft)
06.07.2013 08:10 21,2 C 67 % 1028,4 hPa 0,0 l/m 0,0 km/h (0 Bft) W-SW 247 14,8 C 21,1 C 0,0 km/h (0 Bft)
06.07.2013 08:15 21,7 C 66 % 1028,4 hPa 0,0 l/m 0,0 km/h (0 Bft) W-SW 247 15,1 C 21,3 C 0,0 km/h (0 Bft)
06.07.2013 08:20 22,3 C 62 % 1028,4 hPa 0,0 l/m 0,2 km/h (0 Bft) W-SW 247 14,7 C 21,7 C 2,1 km/h (1 Bft)
06.07.2013 08:25 21,9 C 62 % 1028,4 hPa 0,0 l/m 0,6 km/h (0 Bft) W-SW 247 14,3 C 21,7 C 3,9 km/h (1 Bft)
06.07.2013 08:30 22,2 C 62 % 1028,4 hPa 0,0 l/m 1,9 km/h (1 Bft) W-SW 247 14,6 C 21,6 C 0,0 km/h (0 Bft)
06.07.2013 08:35 23,2 C 61 % 1028,4 hPa 0,0 l/m 2,6 km/h (1 Bft) W-SW 247 15,3 C 21,7 C 3,4 km/h (1 Bft)
06.07.2013 08:40 22,9 C 59 % 1028,4 hPa 0,0 l/m 2,7 km/h (1 Bft) W-SW 247 14,5 C 22,0 C 5,6 km/h (1 Bft)
06.07.2013 08:45 22,7 C 62 % 1028,5 hPa 0,0 l/m 3,1 km/h (1 Bft) W-SW 247 15,0 C 22,1 C 2,9 km/h (1 Bft)
06.07.2013 08:50 22,7 C 61 % 1028,5 hPa 0,0 l/m 2,9 km/h (1 Bft) W-SW 247 14,8 C 22,6 C 7,4 km/h (2 Bft)
06.07.2013 08:55 22,6 C 61 % 1028,5 hPa 0,0 l/m 3,1 km/h (1 Bft) W-NW 292 14,7 C 22,6 C 5,1 km/h (1 Bft)
06.07.2013 09:00 22,1 C 59 % 1028,5 hPa 0,0 l/m 4,2 km/h (1 Bft) N-NW 337 13,7 C 22,2 C 9,2 km/h (2 Bft)
06.07.2013 09:05 22,6 C 59 % 1028,7 hPa 0,0 l/m 4,7 km/h (1 Bft) W-NW 292 14,2 C 22,2 C 6,6 km/h (2 Bft)
06.07.2013 09:10 22,4 C 61 % 1028,7 hPa 0,0 l/m 3,7 km/h (1 Bft) W-SW 247 14,5 C 22,2 C 3,4 km/h (1 Bft)
06.07.2013 09:15 23,0 C 58 % 1028,7 hPa 0,0 l/m 3,7 km/h (1 Bft) W-NW 292 14,3 C 22,5 C 4,7 km/h (1 Bft)
06.07.2013 09:20 22,3 C 59 % 1028,7 hPa 0,0 l/m 4,5 km/h (1 Bft) NW 315 13,9 C 22,5 C 10,3 km/h (2 Bft)
06.07.2013 09:25 22,2 C 59 % 1029,3 hPa 0,0 l/m 5,3 km/h (1 Bft) NO 45 13,8 C 22,4 C 4,8 km/h (1 Bft)
06.07.2013 09:30 22,8 C 59 % 1029,3 hPa 0,0 l/m 5,0 km/h (1 Bft) N-NW 337 14,4 C 22,5 C 11,3 km/h (2 Bft)
06.07.2013 09:35 22,7 C 57 % 1029,3 hPa 0,0 l/m 4,7 km/h (1 Bft) N 360 13,7 C 22,6 C 11,4 km/h (2 Bft)
06.07.2013 09:40 22,3 C 58 % 1029,3 hPa 0,0 l/m 5,6 km/h (1 Bft) NW 315 13,6 C 22,7 C 9,7 km/h (2 Bft)
06.07.2013 09:45 22,0 C 59 % 1029,6 hPa 0,0 l/m 5,5 km/h (1 Bft) N-NW 337 13,6 C 22,3 C 6,4 km/h (2 Bft)
06.07.2013 09:50 22,5 C 59 % 1029,6 hPa 0,0 l/m 5,1 km/h (1 Bft) W 270 14,1 C 22,1 C 5,5 km/h (1 Bft)
06.07.2013 09:55 22,0 C 59 % 1029,6 hPa 0,0 l/m 5,8 km/h (2 Bft) W-NW 292 13,6 C 22,2 C 11,6 km/h (2 Bft)
06.07.2013 10:00 21,1 C 62 % 1029,6 hPa 0,0 l/m 7,1 km/h (2 Bft) W-NW 292 13,5 C 21,1 C 14,5 km/h (3 Bft)
06.07.2013 10:05 21,1 C 62 % 1029,6 hPa 0,0 l/m 7,4 km/h (2 Bft) W-NW 292 13,5 C 20,9 C 10,6 km/h (2 Bft)
06.07.2013 10:10 20,7 C 63 % 1029,6 hPa 0,0 l/m 6,6 km/h (2 Bft) NW 315 13,4 C 21,5 C 8,4 km/h (2 Bft)
06.07.2013 10:15 22,3 C 61 % 1029,6 hPa 0,0 l/m 5,6 km/h (1 Bft) W-NW 292 14,4 C 21,4 C 5,1 km/h (1 Bft)
06.07.2013 10:20 23,2 C 56 % 1029,6 hPa 0,0 l/m 5,3 km/h (1 Bft) S 180 13,9 C 22,5 C 9,5 km/h (2 Bft)
06.07.2013 10:25 22,5 C 57 % 1029,6 hPa 0,0 l/m 5,5 km/h (1 Bft) N-NW 337 13,5 C 22,9 C 5,3 km/h (1 Bft)
06.07.2013 10:30 22,4 C 57 % 1029,6 hPa 0,0 l/m 5,5 km/h (1 Bft) O 90 13,5 C 23,3 C 3,2 km/h (1 Bft)
06.07.2013 10:35 23,0 C 54 % 1029,6 hPa 0,0 l/m 4,5 km/h (1 Bft) N-NW 337 13,2 C 24,2 C 6,9 km/h (2 Bft)
06.07.2013 10:40 22,2 C 56 % 1029,6 hPa 0,0 l/m 4,3 km/h (1 Bft) W-NW 292 13,0 C 24,1 C 3,7 km/h (1 Bft)
06.07.2013 10:45 23,1 C 56 % 1029,6 hPa 0,0 l/m 5,5 km/h (1 Bft) W-NW 292 13,8 C 23,9 C 6,9 km/h (2 Bft)
06.07.2013 10:50 22,9 C 56 % 1029,6 hPa 0,0 l/m 5,5 km/h (1 Bft) N 360 13,6 C 24,3 C 8,2 km/h (2 Bft)
06.07.2013 10:55 22,0 C 60 % 1029,6 hPa 0,0 l/m 5,3 km/h (1 Bft) N-NW 337 13,9 C 23,6 C 6,9 km/h (2 Bft)
06.07.2013 11:00 22,7 C 58 % 1029,6 hPa 0,0 l/m 5,6 km/h (1 Bft) N-NW 337 14,0 C 22,9 C 15,3 km/h (3 Bft)
06.07.2013 11:05 22,1 C 59 % 1029,8 hPa 0,0 l/m 6,6 km/h (2 Bft) W 270 13,7 C 23,3 C 8,9 km/h (2 Bft)
06.07.2013 11:10 21,0 C 64 % 1029,8 hPa 0,0 l/m 6,9 km/h (2 Bft) W 270 13,9 C 22,3 C 2,3 km/h (1 Bft)
06.07.2013 11:15 21,7 C 63 % 1029,8 hPa 0,0 l/m 5,6 km/h (1 Bft) W-SW 247 14,3 C 22,7 C 11,7 km/h (2 Bft)
06.07.2013 11:20 20,9 C 64 % 1029,8 hPa 0,0 l/m 5,5 km/h (1 Bft) N 360 13,8 C 22,5 C 9,3 km/h (2 Bft)
06.07.2013 11:25 21,1 C 64 % 1029,8 hPa 0,0 l/m 6,8 km/h (2 Bft) S-SW 202 14,0 C 22,2 C 4,7 km/h (1 Bft)
06.07.2013 11:30 21,6 C 64 % 1029,8 hPa 0,0 l/m 5,8 km/h (2 Bft) N 360 14,5 C 22,3 C 9,3 km/h (2 Bft)
06.07.2013 11:35 21,3 C 64 % 1029,8 hPa 0,0 l/m 4,3 km/h (1 Bft) N 360 14,2 C 22,4 C 8,2 km/h (2 Bft)
06.07.2013 11:40 21,5 C 66 % 1029,8 hPa 0,0 l/m 4,3 km/h (1 Bft) W-NW 292 14,9 C 22,1 C 9,5 km/h (2 Bft)
06.07.2013 11:45 22,0 C 63 % 1029,8 hPa 0,0 l/m 5,5 km/h (1 Bft) N 360 14,6 C 22,5 C 5,5 km/h (1 Bft)
06.07.2013 11:50 22,0 C 62 % 1029,8 hPa 0,0 l/m 5,3 km/h (1 Bft) N-NO 22 14,4 C 23,5 C 5,1 km/h (1 Bft)
06.07.2013 11:55 21,5 C 64 % 1029,8 hPa 0,0 l/m 4,5 km/h (1 Bft) O-NO 67 14,4 C 23,6 C 3,9 km/h (1 Bft)
06.07.2013 12:00 21,4 C 64 % 1029,8 hPa 0,0 l/m 5,3 km/h (1 Bft) O 90 14,3 C 23,1 C 3,7 km/h (1 Bft)
06.07.2013 12:05 21,9 C 63 % 1029,8 hPa 0,0 l/m 5,5 km/h (1 Bft) O-NO 67 14,5 C 23,1 C 5,3 km/h (1 Bft)
06.07.2013 12:10 23,2 C 60 % 1029,8 hPa 0,0 l/m 4,7 km/h (1 Bft) N 360 15,0 C 23,7 C 8,4 km/h (2 Bft)
06.07.2013 12:15 24,3 C 58 % 1029,8 hPa 0,0 l/m 5,1 km/h (1 Bft) O-NO 67 15,5 C 24,2 C 7,7 km/h (2 Bft)
06.07.2013 12:20 23,3 C 56 % 1029,8 hPa 0,0 l/m 5,6 km/h (1 Bft) NW 315 14,0 C 25,4 C 6,9 km/h (2 Bft)
06.07.2013 12:25 24,1 C 55 % 1029,8 hPa 0,0 l/m 5,5 km/h (1 Bft) N-NO 22 14,5 C 25,1 C 12,6 km/h (3 Bft)
06.07.2013 12:30 24,7 C 52 % 1029,8 hPa 0,0 l/m 6,6 km/h (2 Bft) N-NO 22 14,2 C 25,3 C 7,4 km/h (2 Bft)
06.07.2013 12:35 22,4 C 57 % 1029,8 hPa 0,0 l/m 7,4 km/h (2 Bft) W-NW 292 13,5 C 24,4 C 10,1 km/h (2 Bft)
06.07.2013 12:40 21,6 C 59 % 1029,8 hPa 0,0 l/m 6,4 km/h (2 Bft) N-NW 337 13,2 C 23,3 C 15,8 km/h (3 Bft)
06.07.2013 12:45 22,2 C 59 % 1029,9 hPa 0,0 l/m 5,5 km/h (1 Bft) W 270 13,8 C 22,8 C 6,1 km/h (2 Bft)
06.07.2013 12:50 21,5 C 59 % 1029,9 hPa 0,0 l/m 5,0 km/h (1 Bft) SO 135 13,1 C 23,0 C 7,7 km/h (2 Bft)
06.07.2013 12:55 21,3 C 59 % 1029,9 hPa 0,0 l/m 5,1 km/h (1 Bft) N-NW 337 13,0 C 22,8 C 6,8 km/h (2 Bft)
06.07.2013 13:00 23,5 C 53 % 1029,9 hPa 0,0 l/m 6,1 km/h (2 Bft) W 270 13,4 C 23,8 C 5,8 km/h (2 Bft)
06.07.2013 13:05 24,1 C 51 % 1029,7 hPa 0,0 l/m 6,0 km/h (2 Bft) N-NO 22 13,3 C 24,8 C 8,4 km/h (2 Bft)
06.07.2013 13:10 24,0 C 52 % 1029,7 hPa 0,0 l/m 6,0 km/h (2 Bft) W 270 13,5 C 25,8 C 11,6 km/h (2 Bft)
06.07.2013 13:15 23,3 C 54 % 1029,7 hPa 0,0 l/m 6,1 km/h (2 Bft) S 180 13,5 C 25,3 C 11,3 km/h (2 Bft)
06.07.2013 13:20 22,5 C 57 % 1029,7 hPa 0,0 l/m 7,1 km/h (2 Bft) N 360 13,5 C 24,8 C 8,7 km/h (2 Bft)
06.07.2013 13:25 23,2 C 53 % 1029,7 hPa 0,0 l/m 6,4 km/h (2 Bft) N 360 13,1 C 24,1 C 7,4 km/h (2 Bft)
06.07.2013 13:30 22,6 C 56 % 1029,7 hPa 0,0 l/m 6,1 km/h (2 Bft) N-NW 337 13,4 C 24,1 C 7,2 km/h (2 Bft)
06.07.2013 13:35 22,5 C 57 % 1029,7 hPa 0,0 l/m 6,0 km/h (2 Bft) N 360 13,5 C 23,6 C 6,9 km/h (2 Bft)
06.07.2013 13:40 23,7 C 49 % 1029,7 hPa 0,0 l/m 7,1 km/h (2 Bft) N 360 12,3 C 24,1 C 16,4 km/h (3 Bft)
06.07.2013 13:45 23,0 C 50 % 1029,8 hPa 0,0 l/m 7,4 km/h (2 Bft) N 360 12,0 C 24,1 C 9,8 km/h (2 Bft)
06.07.2013 13:50 23,3 C 52 % 1029,8 hPa 0,0 l/m 7,9 km/h (2 Bft) N-NW 337 12,9 C 23,9 C 17,2 km/h (3 Bft)
06.07.2013 13:55 22,7 C 56 % 1029,8 hPa 0,0 l/m 7,9 km/h (2 Bft) W-NW 292 13,5 C 23,7 C 8,9 km/h (2 Bft)
06.07.2013 14:00 22,2 C 56 % 1029,8 hPa 0,0 l/m 8,2 km/h (2 Bft) W-NW 292 13,0 C 23,2 C 12,2 km/h (2 Bft)
06.07.2013 14:05 21,6 C 58 % 1029,9 hPa 0,0 l/m 8,5 km/h (2 Bft) N 360 13,0 C 22,5 C 8,2 km/h (2 Bft)
06.07.2013 14:10 23,0 C 53 % 1029,9 hPa 0,0 l/m 7,1 km/h (2 Bft) N-NW 337 12,9 C 22,7 C 9,5 km/h (2 Bft)
06.07.2013 14:15 23,4 C 54 % 1029,9 hPa 0,0 l/m 6,1 km/h (2 Bft) N 360 13,6 C 23,5 C 9,3 km/h (2 Bft)
06.07.2013 14:20 23,3 C 51 % 1029,9 hPa 0,0 l/m 6,3 km/h (2 Bft) N 360 12,6 C 24,2 C 6,4 km/h (2 Bft)
06.07.2013 14:25 23,3 C 51 % 1029,7 hPa 0,0 l/m 6,1 km/h (2 Bft) NW 315 12,6 C 24,4 C 11,9 km/h (2 Bft)
06.07.2013 14:30 22,5 C 54 % 1029,7 hPa 0,0 l/m 6,6 km/h (2 Bft) W-NW 292 12,7 C 24,3 C 9,8 km/h (2 Bft)
06.07.2013 14:35 21,9 C 57 % 1029,7 hPa 0,0 l/m 6,1 km/h (2 Bft) W-NW 292 13,0 C 23,7 C 3,4 km/h (1 Bft)
06.07.2013 14:40 23,2 C 53 % 1029,7 hPa 0,0 l/m 5,0 km/h (1 Bft) N 360 13,1 C 23,9 C 10,9 km/h (2 Bft)
06.07.2013 14:45 23,9 C 51 % 1029,6 hPa 0,0 l/m 4,8 km/h (1 Bft) N-NO 22 13,1 C 24,5 C 8,7 km/h (2 Bft)
06.07.2013 14:50 22,9 C 54 % 1029,6 hPa 0,0 l/m 5,0 km/h (1 Bft) O-SO 112 13,1 C 24,9 C 3,1 km/h (1 Bft)
06.07.2013 14:55 22,1 C 56 % 1029,6 hPa 0,0 l/m 5,3 km/h (1 Bft) W-SW 247 12,9 C 24,4 C 8,2 km/h (2 Bft)
06.07.2013 15:00 21,7 C 57 % 1029,6 hPa 0,0 l/m 6,0 km/h (2 Bft) N 360 12,8 C 23,4 C 6,8 km/h (2 Bft)
06.07.2013 15:05 21,8 C 57 % 1029,5 hPa 0,0 l/m 5,5 km/h (1 Bft) N 360 12,9 C 23,2 C 5,6 km/h (1 Bft)
06.07.2013 15:10 23,9 C 53 % 1029,5 hPa 0,0 l/m 3,9 km/h (1 Bft) NW 315 13,7 C 23,8 C 3,5 km/h (1 Bft)
06.07.2013 15:15 24,3 C 49 % 1029,5 hPa 0,0 l/m 4,5 km/h (1 Bft) W-NW 292 12,9 C 24,9 C 6,0 km/h (2 Bft)
06.07.2013 15:20 24,6 C 49 % 1029,5 hPa 0,0 l/m 5,0 km/h (1 Bft) SW 225 13,2 C 26,1 C 4,3 km/h (1 Bft)
06.07.2013 15:25 23,3 C 51 % 1029,4 hPa 0,0 l/m 4,7 km/h (1 Bft) W-SW 247 12,6 C 26,0 C 4,5 km/h (1 Bft)
06.07.2013 15:30 22,5 C 55 % 1029,4 hPa 0,0 l/m 4,7 km/h (1 Bft) W-NW 292 13,0 C 25,0 C 5,5 km/h (1 Bft)
06.07.2013 15:35 22,5 C 56 % 1029,4 hPa 0,0 l/m 5,0 km/h (1 Bft) W-NW 292 13,3 C 24,5 C 8,7 km/h (2 Bft)
06.07.2013 15:40 23,1 C 53 % 1029,4 hPa 0,0 l/m 6,3 km/h (2 Bft) N-NW 337 13,0 C 24,7 C 5,1 km/h (1 Bft)
06.07.2013 15:45 24,9 C 50 % 1029,2 hPa 0,0 l/m 6,4 km/h (2 Bft) N-NW 337 13,7 C 25,5 C 5,3 km/h (1 Bft)
06.07.2013 15:50 24,6 C 48 % 1029,2 hPa 0,0 l/m 5,3 km/h (1 Bft) W-SW 247 12,8 C 27,0 C 3,9 km/h (1 Bft)
06.07.2013 15:55 23,6 C 50 % 1029,2 hPa 0,0 l/m 5,5 km/h (1 Bft) N-NW 337 12,6 C 27,0 C 5,8 km/h (2 Bft)
06.07.2013 16:00 22,6 C 54 % 1029,2 hPa 0,0 l/m 5,8 km/h (2 Bft) NO 45 12,8 C 25,2 C 6,0 km/h (2 Bft)
06.07.2013 16:05 23,8 C 52 % 1029,4 hPa 0,0 l/m 5,8 km/h (2 Bft) O 90 13,3 C 25,0 C 3,7 km/h (1 Bft)
06.07.2013 16:10 23,8 C 50 % 1029,4 hPa 0,0 l/m 4,2 km/h (1 Bft) N-NW 337 12,7 C 25,7 C 11,9 km/h (2 Bft)
06.07.2013 16:15 23,4 C 51 % 1029,4 hPa 0,0 l/m 4,8 km/h (1 Bft) W-SW 247 12,7 C 26,0 C 3,5 km/h (1 Bft)
06.07.2013 16:20 22,7 C 56 % 1029,4 hPa 0,0 l/m 6,6 km/h (2 Bft) SW 225 13,5 C 24,8 C 4,3 km/h (1 Bft)
06.07.2013 16:25 22,5 C 57 % 1029,4 hPa 0,0 l/m 4,7 km/h (1 Bft) N-NO 22 13,5 C 24,3 C 5,1 km/h (1 Bft)
06.07.2013 16:30 22,3 C 57 % 1029,4 hPa 0,0 l/m 4,2 km/h (1 Bft) NW 315 13,4 C 23,8 C 4,2 km/h (1 Bft)
06.07.2013 16:35 22,2 C 58 % 1029,4 hPa 0,0 l/m 4,3 km/h (1 Bft) W-NW 292 13,5 C 23,6 C 3,5 km/h (1 Bft)
06.07.2013 16:40 22,2 C 57 % 1029,4 hPa 0,0 l/m 4,3 km/h (1 Bft) W-NW 292 13,3 C 23,5 C 6,6 km/h (2 Bft)
06.07.2013 16:45 23,6 C 54 % 1029,1 hPa 0,0 l/m 4,3 km/h (1 Bft) NW 315 13,7 C 24,3 C 7,1 km/h (2 Bft)
06.07.2013 16:50 22,9 C 54 % 1029,1 hPa 0,0 l/m 4,7 km/h (1 Bft) NO 45 13,1 C 25,4 C 3,9 km/h (1 Bft)
06.07.2013 16:55 22,3 C 55 % 1029,1 hPa 0,0 l/m 4,7 km/h (1 Bft) N-NW 337 12,8 C 25,0 C 3,5 km/h (1 Bft)
06.07.2013 17:00 22,1 C 56 % 1029,1 hPa 0,0 l/m 3,9 km/h (1 Bft) NW 315 12,9 C 24,4 C 7,4 km/h (2 Bft)
06.07.2013 17:05 22,3 C 55 % 1029,1 hPa 0,0 l/m 4,7 km/h (1 Bft) N-NW 337 12,8 C 24,0 C 7,4 km/h (2 Bft)
06.07.2013 17:10 22,7 C 55 % 1029,1 hPa 0,0 l/m 5,3 km/h (1 Bft) W-SW 247 13,2 C 25,3 C 3,4 km/h (1 Bft)
06.07.2013 17:15 23,0 C 53 % 1029,1 hPa 0,0 l/m 5,1 km/h (1 Bft) N-NW 337 12,9 C 26,3 C 6,8 km/h (2 Bft)
06.07.2013 17:20 22,8 C 54 % 1029,1 hPa 0,0 l/m 4,7 km/h (1 Bft) N 360 13,0 C 27,3 C 9,5 km/h (2 Bft)
06.07.2013 17:25 22,8 C 54 % 1029,0 hPa 0,0 l/m 5,3 km/h (1 Bft) O-SO 112 13,0 C 27,3 C 4,5 km/h (1 Bft)
06.07.2013 17:30 23,2 C 53 % 1029,0 hPa 0,0 l/m 6,4 km/h (2 Bft) W-NW 292 13,1 C 27,2 C 7,2 km/h (2 Bft)
06.07.2013 17:35 23,1 C 52 % 1029,0 hPa 0,0 l/m 6,1 km/h (2 Bft) N 360 12,7 C 27,6 C 9,7 km/h (2 Bft)
06.07.2013 17:40 22,5 C 56 % 1029,0 hPa 0,0 l/m 5,6 km/h (1 Bft) N 360 13,3 C 27,0 C 14,0 km/h (3 Bft)
06.07.2013 17:45 22,1 C 56 % 1029,1 hPa 0,0 l/m 6,1 km/h (2 Bft) S 180 12,9 C 26,1 C 6,1 km/h (2 Bft)
06.07.2013 17:50 21,9 C 57 % 1029,1 hPa 0,0 l/m 4,8 km/h (1 Bft) NW 315 13,0 C 24,4 C 5,0 km/h (1 Bft)
06.07.2013 17:55 21,8 C 56 % 1029,1 hPa 0,0 l/m 4,7 km/h (1 Bft) W 270 12,6 C 23,6 C 10,6 km/h (2 Bft)
06.07.2013 18:00 22,0 C 57 % 1029,1 hPa 0,0 l/m 4,8 km/h (1 Bft) SO 135 13,1 C 23,7 C 7,7 km/h (2 Bft)
06.07.2013 18:05 22,4 C 57 % 1029,0 hPa 0,0 l/m 5,3 km/h (1 Bft) N-NW 337 13,5 C 24,7 C 7,7 km/h (2 Bft)
06.07.2013 18:10 22,5 C 56 % 1029,0 hPa 0,0 l/m 5,8 km/h (2 Bft) W-SW 247 13,3 C 25,5 C 5,0 km/h (1 Bft)
06.07.2013 18:15 22,7 C 56 % 1029,0 hPa 0,0 l/m 5,8 km/h (2 Bft) N-NO 22 13,5 C 25,8 C 11,7 km/h (2 Bft)
06.07.2013 18:20 22,6 C 54 % 1029,0 hPa 0,0 l/m 6,3 km/h (2 Bft) W-NW 292 12,8 C 26,1 C 4,2 km/h (1 Bft)
06.07.2013 18:25 22,1 C 55 % 1028,9 hPa 0,0 l/m 5,8 km/h (2 Bft) N 360 12,6 C 25,8 C 3,1 km/h (1 Bft)
06.07.2013 18:30 22,3 C 56 % 1028,9 hPa 0,0 l/m 5,0 km/h (1 Bft) W 270 13,1 C 25,3 C 4,8 km/h (1 Bft)
06.07.2013 18:35 22,6 C 56 % 1028,9 hPa 0,0 l/m 4,5 km/h (1 Bft) W-NW 292 13,4 C 25,6 C 4,8 km/h (1 Bft)
06.07.2013 18:40 22,2 C 56 % 1028,9 hPa 0,0 l/m 4,8 km/h (1 Bft) N-NW 337 13,0 C 25,6 C 10,3 km/h (2 Bft)
06.07.2013 18:45 22,0 C 57 % 1028,8 hPa 0,0 l/m 5,0 km/h (1 Bft) W-NW 292 13,1 C 25,0 C 5,3 km/h (1 Bft)
06.07.2013 18:50 21,6 C 57 % 1028,8 hPa 0,0 l/m 4,5 km/h (1 Bft) W-NW 292 12,7 C 24,0 C 6,1 km/h (2 Bft)
06.07.2013 18:55 21,5 C 57 % 1028,8 hPa 0,0 l/m 4,2 km/h (1 Bft) W-NW 292 12,6 C 23,4 C 4,5 km/h (1 Bft)
06.07.2013 19:00 21,4 C 59 % 1028,8 hPa 0,0 l/m 4,0 km/h (1 Bft) N 360 13,0 C 23,6 C 6,0 km/h (2 Bft)
06.07.2013 19:05 21,1 C 59 % 1028,5 hPa 0,0 l/m 3,4 km/h (1 Bft) N-NO 22 12,8 C 23,3 C 4,8 km/h (1 Bft)
06.07.2013 19:10 20,9 C 60 % 1028,5 hPa 0,0 l/m 4,0 km/h (1 Bft) N-NW 337 12,8 C 22,5 C 6,1 km/h (2 Bft)
06.07.2013 19:15 20,6 C 61 % 1028,5 hPa 0,0 l/m 4,2 km/h (1 Bft) N-NW 337 12,8 C 22,1 C 2,7 km/h (1 Bft)
06.07.2013 19:20 20,3 C 62 % 1028,5 hPa 0,0 l/m 3,7 km/h (1 Bft) N 360 12,8 C 21,6 C 7,6 km/h (2 Bft)
06.07.2013 19:25 20,1 C 62 % 1028,4 hPa 0,0 l/m 3,2 km/h (1 Bft) W-NW 292 12,6 C 21,3 C 9,8 km/h (2 Bft)
06.07.2013 19:30 19,8 C 65 % 1028,4 hPa 0,0 l/m 3,1 km/h (1 Bft) N-NO 22 13,0 C 20,9 C 2,3 km/h (1 Bft)
06.07.2013 19:35 19,9 C 65 % 1028,4 hPa 0,0 l/m 2,3 km/h (1 Bft) W-NW 292 13,1 C 21,2 C 0,0 km/h (0 Bft)
06.07.2013 19:40 20,3 C 64 % 1028,4 hPa 0,0 l/m 0,5 km/h (0 Bft) N-NO 22 13,3 C 22,7 C 0,0 km/h (0 Bft)
06.07.2013 19:45 20,3 C 65 % 1028,4 hPa 0,0 l/m 0,6 km/h (0 Bft) N 360 13,5 C 23,2 C 0,0 km/h (0 Bft)
06.07.2013 19:50 20,0 C 65 % 1028,4 hPa 0,0 l/m 0,5 km/h (0 Bft) N 360 13,2 C 23,4 C 0,0 km/h (0 Bft)
06.07.2013 19:55 19,9 C 65 % 1028,4 hPa 0,0 l/m 0,2 km/h (0 Bft) N 360 13,1 C 22,9 C 0,0 km/h (0 Bft)
06.07.2013 20:00 19,5 C 66 % 1028,4 hPa 0,0 l/m 0,0 km/h (0 Bft) NO 45 13,0 C 22,2 C 0,0 km/h (0 Bft)
06.07.2013 20:05 19,3 C 67 % 1028,2 hPa 0,0 l/m 0,0 km/h (0 Bft) NO 45 13,0 C 21,8 C 0,0 km/h (0 Bft)
06.07.2013 20:10 19,2 C 68 % 1028,2 hPa 0,0 l/m 0,0 km/h (0 Bft) O 90 13,1 C 21,9 C 0,0 km/h (0 Bft)
06.07.2013 20:15 19,1 C 68 % 1028,2 hPa 0,0 l/m 0,0 km/h (0 Bft) O-NO 67 13,1 C 22,2 C 0,0 km/h (0 Bft)
06.07.2013 20:20 19,1 C 69 % 1028,2 hPa 0,0 l/m 0,2 km/h (0 Bft) NO 45 13,3 C 22,4 C 0,0 km/h (0 Bft)
06.07.2013 20:25 19,1 C 69 % 1028,4 hPa 0,0 l/m 0,5 km/h (0 Bft) NO 45 13,3 C 22,4 C 2,1 km/h (1 Bft)
06.07.2013 20:30 19,1 C 69 % 1028,4 hPa 0,0 l/m 0,5 km/h (0 Bft) NO 45 13,3 C 22,2 C 0,0 km/h (0 Bft)
06.07.2013 20:35 18,9 C 70 % 1028,4 hPa 0,0 l/m 0,3 km/h (0 Bft) NO 45 13,3 C 22,1 C 0,0 km/h (0 Bft)
06.07.2013 20:40 18,7 C 70 % 1028,4 hPa 0,0 l/m 0,3 km/h (0 Bft) NW 315 13,1 C 21,7 C 0,0 km/h (0 Bft)
06.07.2013 20:45 18,5 C 71 % 1028,6 hPa 0,0 l/m 0,2 km/h (0 Bft) N-NO 22 13,1 C 21,5 C 0,0 km/h (0 Bft)
06.07.2013 20:50 18,4 C 71 % 1028,6 hPa 0,0 l/m 0,2 km/h (0 Bft) O 90 13,0 C 21,0 C 0,0 km/h (0 Bft)
06.07.2013 20:55 18,4 C 70 % 1028,6 hPa 0,0 l/m 0,2 km/h (0 Bft) O-NO 67 12,8 C 20,7 C 0,0 km/h (0 Bft)
06.07.2013 21:00 18,3 C 70 % 1028,6 hPa 0,0 l/m 0,5 km/h (0 Bft) O 90 12,7 C 19,9 C 1,8 km/h (1 Bft)
06.07.2013 21:05 18,1 C 70 % 1028,6 hPa 0,0 l/m 0,6 km/h (0 Bft) NO 45 12,5 C 19,3 C 1,6 km/h (1 Bft)
06.07.2013 21:10 17,9 C 70 % 1028,6 hPa 0,0 l/m 0,5 km/h (0 Bft) O-SO 112 12,3 C 18,5 C 0,0 km/h (0 Bft)
06.07.2013 21:15 17,7 C 70 % 1028,6 hPa 0,0 l/m 0,3 km/h (0 Bft) O 90 12,2 C 18,0 C 0,0 km/h (0 Bft)
06.07.2013 21:20 17,5 C 71 % 1028,6 hPa 0,0 l/m 0,3 km/h (0 Bft) O-NO 67 12,2 C 17,5 C 0,0 km/h (0 Bft)
06.07.2013 21:25 17,4 C 71 % 1028,8 hPa 0,0 l/m 0,6 km/h (0 Bft) O 90 12,1 C 17,1 C 2,3 km/h (1 Bft)
06.07.2013 21:30 16,9 C 72 % 1028,8 hPa 0,0 l/m 0,5 km/h (0 Bft) O-NO 67 11,8 C 16,7 C 0,0 km/h (0 Bft)
06.07.2013 21:35 16,5 C 73 % 1028,8 hPa 0,0 l/m 0,2 km/h (0 Bft) O 90 11,6 C 16,3 C 0,0 km/h (0 Bft)
06.07.2013 21:40 16,6 C 74 % 1028,8 hPa 0,0 l/m 0,6 km/h (0 Bft) O-NO 67 11,9 C 15,9 C 2,7 km/h (1 Bft)
06.07.2013 21:45 16,6 C 74 % 1028,9 hPa 0,0 l/m 1,0 km/h (0 Bft) O 90 11,9 C 15,8 C 0,0 km/h (0 Bft)
06.07.2013 21:50 16,1 C 75 % 1028,9 hPa 0,0 l/m 0,6 km/h (0 Bft) O-NO 67 11,7 C 15,4 C 0,0 km/h (0 Bft)
06.07.2013 21:55 15,9 C 77 % 1028,9 hPa 0,0 l/m 0,3 km/h (0 Bft) O 90 11,9 C 15,2 C 0,0 km/h (0 Bft)
06.07.2013 22:00 15,6 C 78 % 1028,9 hPa 0,0 l/m 0,0 km/h (0 Bft) NO 45 11,8 C 14,9 C 0,0 km/h (0 Bft)
06.07.2013 22:05 15,7 C 78 % 1029,0 hPa 0,0 l/m 0,0 km/h (0 Bft) O-NO 67 11,9 C 14,8 C 0,0 km/h (0 Bft)
06.07.2013 22:10 15,2 C 78 % 1029,0 hPa 0,0 l/m 0,2 km/h (0 Bft) O-SO 112 11,4 C 14,5 C 0,0 km/h (0 Bft)
06.07.2013 22:15 15,0 C 79 % 1029,0 hPa 0,0 l/m 0,2 km/h (0 Bft) NO 45 11,4 C 14,3 C 0,0 km/h (0 Bft)
06.07.2013 22:20 14,8 C 80 % 1029,0 hPa 0,0 l/m 0,0 km/h (0 Bft) NO 45 11,4 C 14,0 C 0,0 km/h (0 Bft)
06.07.2013 22:25 14,9 C 81 % 1029,2 hPa 0,0 l/m 0,0 km/h (0 Bft) O-NO 67 11,7 C 13,9 C 0,0 km/h (0 Bft)
06.07.2013 22:30 14,6 C 82 % 1029,2 hPa 0,0 l/m 0,0 km/h (0 Bft) O-NO 67 11,6 C 13,8 C 0,0 km/h (0 Bft)
06.07.2013 22:35 14,4 C 82 % 1029,2 hPa 0,0 l/m 0,0 km/h (0 Bft) O 90 11,4 C 13,6 C 0,0 km/h (0 Bft)
06.07.2013 22:40 14,4 C 83 % 1029,2 hPa 0,0 l/m 0,2 km/h (0 Bft) O 90 11,5 C 13,6 C 0,0 km/h (0 Bft)
06.07.2013 22:45 14,2 C 82 % 1029,1 hPa 0,0 l/m 0,2 km/h (0 Bft) O-SO 112 11,2 C 13,5 C 0,0 km/h (0 Bft)
06.07.2013 22:50 14,0 C 83 % 1029,1 hPa 0,0 l/m 0,0 km/h (0 Bft) O 90 11,2 C 13,3 C 0,0 km/h (0 Bft)
06.07.2013 22:55 13,8 C 83 % 1029,1 hPa 0,0 l/m 0,0 km/h (0 Bft) NO 45 11,0 C 13,1 C 0,0 km/h (0 Bft)
06.07.2013 23:00 13,7 C 84 % 1029,1 hPa 0,0 l/m 0,0 km/h (0 Bft) O-NO 67 11,0 C 13,0 C 0,0 km/h (0 Bft)
06.07.2013 23:05 13,5 C 84 % 1029,0 hPa 0,0 l/m 0,0 km/h (0 Bft) NO 45 10,8 C 12,9 C 0,0 km/h (0 Bft)
06.07.2013 23:10 13,3 C 84 % 1029,0 hPa 0,0 l/m 0,0 km/h (0 Bft) NO 45 10,7 C 12,7 C 0,0 km/h (0 Bft)
06.07.2013 23:15 13,6 C 85 % 1029,0 hPa 0,0 l/m 0,0 km/h (0 Bft) NO 45 11,1 C 12,7 C 0,0 km/h (0 Bft)
06.07.2013 23:20 13,7 C 86 % 1029,0 hPa 0,0 l/m 0,0 km/h (0 Bft) NO 45 11,4 C 12,7 C 0,0 km/h (0 Bft)
06.07.2013 23:25 13,3 C 85 % 1028,9 hPa 0,0 l/m 0,0 km/h (0 Bft) NO 45 10,8 C 12,7 C 0,0 km/h (0 Bft)
06.07.2013 23:30 13,1 C 85 % 1028,9 hPa 0,0 l/m 0,0 km/h (0 Bft) NO 45 10,6 C 12,6 C 0,0 km/h (0 Bft)
06.07.2013 23:35 12,9 C 86 % 1028,9 hPa 0,0 l/m 0,0 km/h (0 Bft) NO 45 10,6 C 12,4 C 0,0 km/h (0 Bft)
06.07.2013 23:40 13,4 C 86 % 1028,9 hPa 0,0 l/m 0,0 km/h (0 Bft) NO 45 11,1 C 12,4 C 1,6 km/h (1 Bft)
06.07.2013 23:45 13,6 C 87 % 1028,9 hPa 0,0 l/m 0,0 km/h (0 Bft) NO 45 11,5 C 12,5 C 0,0 km/h (0 Bft)
06.07.2013 23:50 13,1 C 86 % 1028,9 hPa 0,0 l/m 0,0 km/h (0 Bft) NO 45 10,8 C 12,4 C 0,0 km/h (0 Bft)
06.07.2013 23:55 12,8 C 87 % 1028,9 hPa 0,0 l/m 0,0 km/h (0 Bft) NO 45 10,7 C 12,4 C 0,0 km/h (0 Bft)
_ Min-Zeit 05:55 15:50 20:20 - 23:55 - - 05:55 06:00 23:55
Minimum _ 11,1 C 48 % 1028,2 hPa - 0,0 km/h (0 Bft) - - 9,8 C 10,9 C 0,0 km/h (0 Bft)
_ Max-Zeit 15:45 06:10 01:20 23:55 14:05 - - 07:55 17:35 13:50
Maximum _ 24,9 C 93 % 1030,2 hPa 0,0 l/m 8,5 km/h
N (2 Bft)
- - 15,9 C 27,6 C 17,2 km/h
N-NW (3 Bft)
Durchschnitt _ 18,4 C 71 % 1029,2 hPa #0,0 l/m 2,6 km/h (1 Bft) W-NW - 12,7 C 19,1 C 3,5 km/h (1 Bft)